FW0878 Weather Reports


Display with metric or nautical units.
time (UTC)temp
F
wind
direction
speed
MPH
gust
MPH
rain 1hr
in
rain 24hr
in
rain mn
in
humidity
%
barometer
mb
20260902204307 51 358 0.0 3.0 0.00 0.00 0.00 73 1009.9
20260902203807 51 292 2.0 3.0 0.00 0.00 0.00 73 1009.6
20260902203306 51 19 1.0 3.0 0.00 0.00 0.00 73 1009.8
20260902202806 51 324 2.0 6.0 0.00 0.00 0.00 72 1009.5
20260902202307 51 359 1.0 5.0 0.00 0.00 0.00 72 1009.5
20260902201806 51 339 1.0 3.0 0.00 0.00 0.00 72 1009.7
20260902201306 51 274 1.0 2.0 0.00 0.00 0.00 72 1009.7
20260902200807 51 293 1.0 2.0 0.00 0.00 0.00 73 1009.9
20260902200307 51 20 0.0 3.0 0.00 0.00 0.00 73 1009.9
20260902195808 51 337 1.0 3.0 0.00 0.00 0.00 73 1009.8
20260902195307 51 337 1.0 3.0 0.00 0.00 0.00 72 1009.8
20260902194306 52 337 1.0 3.0 0.00 0.00 0.00 71 1010.0
20260902193806 52 22 1.0 3.0 0.00 0.00 0.00 71 1009.8
20260902192807 52 19 1.0 5.0 0.00 0.00 0.00 70 1009.9
20260902192307 52 292 1.0 3.0 0.00 0.00 0.00 70 1009.9
20260902191807 52 356 2.0 3.0 0.00 0.00 0.00 70 1009.8
20260902191307 52 273 1.0 3.0 0.00 0.00 0.00 70 1009.8
20260902190306 52 292 1.0 3.0 0.00 0.00 0.00 70 1009.6
20260902185307 52 294 1.0 5.0 0.00 0.00 0.00 70 1009.4
20260902184808 51 312 1.0 3.0 0.00 0.00 0.00 70 1009.1
20260902183807 51 248 1.0 5.0 0.00 0.00 0.00 71 1009.3
20260902183307 51 249 2.0 5.0 0.00 0.00 0.00 72 1009.2
20260902182806 51 317 2.0 5.0 0.00 0.00 0.00 72 1009.2
20260902182306 50 112 1.0 5.0 0.00 0.00 0.00 73 1009.2
20260902181807 50 276 2.0 5.0 0.00 0.00 0.00 74 1009.2
20260902181306 49 313 1.0 2.0 0.00 0.00 0.00 74 1009.0
20260902180806 50 314 1.0 2.0 0.00 0.00 0.00 74 1009.1
20260902180306 50 269 1.0 3.0 0.00 0.00 0.00 73 1008.9
20260902175807 49 339 1.0 3.0 0.00 0.00 0.00 74 1009.0
20260902175308 49 337 1.0 3.0 0.00 0.00 0.00 75 1009.2
20260902174307 49 275 1.0 3.0 0.00 0.00 0.00 74 1009.1
20260902173307 49 290 1.0 3.0 0.00 0.00 0.00 74 1009.2
20260902172807 49 316 1.0 3.0 0.00 0.00 0.00 75 1009.3
20260902172308 48 338 1.0 3.0 0.00 0.00 0.00 75 1009.4
20260902171306 48 314 1.0 2.0 0.00 0.00 0.00 75 1009.5
20260902170807 48 357 1.0 2.0 0.00 0.00 0.00 76 1009.6
20260902170307 48 227 1.0 2.0 0.00 0.00 0.00 76 1009.9
20260902165807 47 250 1.0 2.0 0.00 0.00 0.00 77 1009.8
20260902165309 47 315 1.0 2.0 0.00 0.00 0.00 78 1009.8
20260902164807 46 357 0.0 1.0 0.00 0.00 0.00 79 1009.9
20260902164306 46 340 0.0 2.0 0.00 0.00 0.00 79 1009.8
20260902163306 46 338 0.0 0.0 0.00 0.00 0.00 78 1010.0
20260902162807 47 338 0.0 0.0 0.00 0.00 0.00 78 1010.1
20260902162307 47 338 0.0 2.0 0.00 0.00 0.00 78 1010.2
20260902161806 47 0 0.0 1.0 0.00 0.00 0.00 78 1010.2
20260902161306 47 338 0.0 1.0 0.00 0.00 0.00 78 1010.5
20260902155807 48 338 1.0 2.0 0.00 0.00 0.00 77 1010.4
20260902155307 47 359 0.0 1.0 0.00 0.00 0.00 77 1010.5
20260902154807 48 340 1.0 2.0 0.00 0.00 0.00 78 1010.5
20260902154306 47 20 1.0 2.0 0.00 0.00 0.00 78 1010.4
20260902153806 47 338 1.0 1.0 0.00 0.00 0.00 79 1010.4
20260902153307 47 338 1.0 3.0 0.00 0.00 0.00 79 1010.5
20260902152806 47 1 1.0 3.0 0.00 0.00 0.00 79 1010.5
20260902152308 47 316 1.0 1.0 0.00 0.00 0.00 80 1010.4
20260902151807 46 338 0.0 1.0 0.00 0.00 0.00 80 1010.7
20260902151308 46 340 1.0 2.0 0.00 0.00 0.00 81 1010.6
20260902150807 46 337 0.0 1.0 0.00 0.00 0.00 81 1010.5
20260902150307 46 271 0.0 1.0 0.00 0.00 0.00 80 1010.7
20260902145806 46 270 0.0 1.0 0.00 0.00 0.00 80 1010.6
20260902145306 46 20 0.0 1.0 0.00 0.00 0.00 80 1010.5
20260902144807 46 293 0.0 1.0 0.00 0.00 0.00 79 1010.7
20260902144306 46 338 1.0 1.0 0.00 0.00 0.00 79 1010.7
20260902143806 46 315 0.0 1.0 0.00 0.00 0.00 78 1010.5
20260902143306 46 359 0.0 2.0 0.00 0.00 0.00 78 1010.5
20260902142806 47 228 0.0 2.0 0.00 0.00 0.00 77 1010.6
20260902142306 47 42 1.0 2.0 0.00 0.00 0.00 77 1010.8
20260902141806 47 338 1.0 2.0 0.00 0.00 0.00 77 1010.9
20260902141308 47 293 1.0 2.0 0.00 0.00 0.00 76 1011.0
20260902140807 47 338 1.0 1.0 0.00 0.00 0.00 76 1011.1
20260902140307 47 338 1.0 2.0 0.00 0.00 0.00 76 1011.0
20260902135807 47 17 1.0 3.0 0.00 0.00 0.00 76 1011.1
20260902135307 47 337 1.0 2.0 0.00 0.00 0.00 76 1011.1
20260902134806 47 336 1.0 1.0 0.00 0.00 0.00 75 1010.9
20260902134307 47 315 0.0 1.0 0.00 0.00 0.00 74 1011.1
20260902133307 48 337 0.0 1.0 0.00 0.00 0.00 73 1011.0
20260902132307 49 338 0.0 1.0 0.00 0.00 0.00 72 1011.2
20260902131807 49 338 0.0 1.0 0.00 0.00 0.00 71 1011.2
20260902130806 50 359 0.0 1.0 0.00 0.00 0.00 70 1011.3
20260902130306 50 315 0.0 1.0 0.00 0.00 0.00 69 1011.4
20260902125806 51 294 1.0 2.0 0.00 0.00 0.00 68 1011.5
20260902125307 51 294 1.0 1.0 0.00 0.00 0.00 68 1011.6
20260902124806 51 316 1.0 2.0 0.00 0.00 0.00 67 1011.6
20260902124306 52 315 1.0 2.0 0.00 0.00 0.00 67 1011.6
20260902123806 52 335 1.0 2.0 0.00 0.00 0.00 66 1011.6
20260902123306 52 271 1.0 2.0 0.00 0.00 0.00 66 1011.7
20260902122807 52 297 1.0 2.0 0.00 0.00 0.00 66 1011.7
20260902122306 52 313 1.0 2.0 0.00 0.00 0.00 65 1011.9
20260902121807 52 249 1.0 3.0 0.00 0.00 0.00 65 1011.9
20260902121307 52 270 1.0 3.0 0.00 0.00 0.00 65 1011.9
20260902120307 53 109 1.0 2.0 0.00 0.00 0.00 65 1012.0
20260902115308 53 335 1.0 2.0 0.00 0.00 0.00 64 1012.1
20260902114806 53 267 1.0 6.0 0.00 0.00 0.00 64 1012.2
20260902114306 53 338 1.0 6.0 0.00 0.00 0.00 64 1012.2
20260902113806 53 293 1.0 3.0 0.00 0.00 0.00 64 1012.2
20260902113306 53 294 1.0 6.0 0.00 0.00 0.00 64 1012.1
20260902112807 54 226 1.0 3.0 0.00 0.00 0.00 63 1012.0
20260902112306 54 315 2.0 3.0 0.00 0.00 0.00 62 1011.6
20260902111806 54 316 1.0 5.0 0.00 0.00 0.00 61 1011.8
20260902111306 54 335 1.0 5.0 0.00 0.00 0.00 61 1012.1
20260902110806 54 111 1.0 3.0 0.00 0.00 0.00 62 1012.1
20260902110306 54 314 1.0 3.0 0.00 0.00 0.00 62 1012.0
20260902105807 55 338 1.0 2.0 0.00 0.00 0.00 63 1012.2
20260902105306 55 339 1.0 3.0 0.00 0.00 0.00 63 1012.3
20260902104806 55 295 2.0 5.0 0.00 0.00 0.00 62 1012.2
20260902104306 56 61 1.0 3.0 0.00 0.00 0.00 62 1012.0
20260902103807 56 336 1.0 5.0 0.00 0.00 0.00 62 1012.2
20260902103307 57 357 2.0 5.0 0.00 0.00 0.00 61 1012.0
20260902102806 57 254 1.0 3.0 0.00 0.00 0.00 61 1011.9
20260902102308 57 314 2.0 3.0 0.00 0.00 0.00 61 1012.2
20260902101806 57 290 1.0 2.0 0.00 0.00 0.00 62 1012.1
20260902101306 58 295 1.0 2.0 0.00 0.00 0.00 62 1012.0
20260902100808 58 295 1.0 3.0 0.00 0.00 0.00 62 1012.0
20260902100306 58 232 1.0 2.0 0.00 0.00 0.00 61 1012.1
20260902095807 58 313 1.0 5.0 0.00 0.00 0.00 61 1012.1
20260902095307 58 313 2.0 3.0 0.00 0.00 0.00 62 1012.1
20260902094807 58 21 1.0 2.0 0.00 0.00 0.00 64 1011.9
20260902094306 57 292 0.0 5.0 0.00 0.00 0.00 66 1011.9
20260902093807 57 22 0.0 2.0 0.00 0.00 0.00 68 1012.1
20260902093306 57 22 1.0 1.0 0.00 0.00 0.00 68 1011.9
20260902092807 57 22 0.0 1.0 0.00 0.00 0.00 69 1011.8
20260902092307 56 45 0.0 1.0 0.00 0.00 0.00 70 1011.9
20260902091807 56 45 1.0 1.0 0.00 0.00 0.00 71 1011.7
20260902090807 56 90 0.0 0.0 0.00 0.00 0.00 71 1011.6
20260902090306 56 90 0.0 0.0 0.00 0.00 0.00 71 1011.7
20260902085806 56 90 0.0 1.0 0.00 0.00 0.00 71 1011.6
20260902085306 56 90 0.0 0.0 0.00 0.00 0.00 70 1011.4
20260902084806 56 90 0.0 1.0 0.00 0.00 0.00 70 1011.6
20260902083806 57 90 0.0 1.0 0.00 0.00 0.00 69 1011.4
20260902083307 57 112 0.0 1.0 0.00 0.00 0.00 69 1011.3
20260902082806 57 68 0.0 1.0 0.00 0.00 0.00 68 1011.2
20260902082309 57 90 1.0 3.0 0.00 0.00 0.00 68 1011.2
20260902081807 57 110 1.0 2.0 0.00 0.00 0.00 67 1011.3
20260902081309 58 89 0.0 1.0 0.00 0.00 0.00 67 1011.3
20260902080806 58 112 1.0 3.0 0.00 0.00 0.00 66 1011.3
20260902080307 58 45 2.0 3.0 0.00 0.00 0.00 65 1011.4
20260902075808 59 46 1.0 5.0 0.00 0.00 0.00 65 1011.2
20260902075306 59 87 3.0 5.0 0.00 0.00 0.00 64 1011.2
20260902074807 60 25 1.0 3.0 0.00 0.00 0.00 61 1011.1
20260902074307 60 71 1.0 2.0 0.00 0.00 0.00 59 1011.1
20260902073807 60 179 1.0 3.0 0.00 0.00 0.00 59 1011.1
20260902073307 61 159 1.0 3.0 0.00 0.00 0.00 58 1010.9
20260902072808 61 113 1.0 2.0 0.00 0.00 0.00 57 1010.9
20260902072309 61 247 1.0 3.0 0.00 0.00 0.00 56 1010.9
20260902071806 61 290 1.0 3.0 0.00 0.00 0.00 55 1010.8
20260902071308 61 180 1.0 3.0 0.00 0.00 0.00 55 1010.8
20260902070307 62 269 2.0 5.0 0.00 0.00 0.00 55 1011.0
20260902065808 62 249 2.0 5.0 0.00 0.00 0.00 54 1011.0
20260902065307 62 249 3.0 5.0 0.00 0.00 0.00 54 1011.1
20260902064806 63 207 2.0 5.0 0.00 0.00 0.00 54 1010.9
20260902064307 63 250 1.0 6.0 0.00 0.00 0.00 52 1011.0
20260902063806 64 271 2.0 5.0 0.00 0.00 0.00 50 1011.1
20260902063309 64 294 3.0 6.0 0.00 0.00 0.00 50 1011.1
20260902062806 64 292 1.0 5.0 0.00 0.00 0.00 50 1011.1
20260902062306 64 251 3.0 6.0 0.00 0.00 0.00 49 1011.3
20260902061807 64 338 1.0 5.0 0.00 0.00 0.00 50 1011.3
20260902060806 64 222 3.0 7.0 0.00 0.00 0.00 49 1011.4
20260902060306 64 245 1.0 6.0 0.00 0.00 0.00 50 1011.6
20260902055307 64 251 3.0 6.0 0.00 0.00 0.00 51 1011.5
20260902054806 64 0 2.0 8.0 0.00 0.00 0.00 50 1011.6
20260902053807 65 203 3.0 7.0 0.00 0.00 0.00 49 1011.9
20260902053307 65 293 1.0 5.0 0.00 0.00 0.00 49 1012.0
20260902052807 65 291 2.0 5.0 0.00 0.00 0.00 50 1012.1
20260902051807 64 250 1.0 3.0 0.00 0.00 0.00 50 1012.1
20260902051307 65 180 2.0 8.0 0.00 0.00 0.00 49 1012.1
20260902050808 65 292 3.0 8.0 0.00 0.00 0.00 49 1012.2
20260902045806 65 314 2.0 5.0 0.00 0.00 0.00 49 1012.1
20260902044807 64 202 3.0 7.0 0.00 0.00 0.00 50 1012.2
20260902044306 64 249 3.0 6.0 0.00 0.00 0.00 50 1012.3
20260902043806 64 226 1.0 5.0 0.00 0.00 0.00 51 1012.4
20260902043306 64 271 2.0 5.0 0.00 0.00 0.00 51 1012.4
20260902042807 65 338 1.0 5.0 0.00 0.00 0.00 50 1012.2
20260902042309 64 309 2.0 6.0 0.00 0.00 0.00 51 1012.3
20260902041806 63 269 1.0 5.0 0.00 0.00 0.00 53 1012.3
20260902041307 63 226 2.0 5.0 0.00 0.00 0.00 54 1012.3
20260902040307 63 246 1.0 3.0 0.00 0.00 0.00 54 1012.7
20260902035807 63 253 3.0 7.0 0.00 0.00 0.00 54 1012.5
20260902035307 63 268 2.0 6.0 0.00 0.00 0.00 52 1012.4
20260902034807 63 355 1.0 5.0 0.00 0.00 0.00 53 1012.5
20260902034307 63 181 1.0 5.0 0.00 0.00 0.00 54 1012.8
20260902033306 66 67 1.0 3.0 0.00 0.00 0.00 49 1012.6
20260902032806 66 243 1.0 3.0 0.00 0.00 0.00 48 1012.8
20260902032306 65 270 2.0 5.0 0.00 0.00 0.00 50 1012.8
20260902031806 62 272 1.0 7.0 0.00 0.00 0.00 55 1012.8
20260902031307 63 222 3.0 7.0 0.00 0.00 0.00 53 1012.7
20260902030807 63 90 1.0 5.0 0.00 0.00 0.00 53 1013.0
20260902025806 62 248 1.0 5.0 0.00 0.00 0.00 54 1013.3
20260902024807 62 293 2.0 6.0 0.00 0.00 0.00 55 1013.5
20260902023806 63 159 3.0 8.0 0.00 0.00 0.00 53 1013.7
20260902022807 61 250 2.0 6.0 0.00 0.00 0.00 56 1013.9
20260902022306 61 271 3.0 6.0 0.00 0.00 0.00 56 1014.0
20260902021806 61 270 2.0 6.0 0.00 0.00 0.00 56 1014.0
20260902021307 61 230 2.0 8.0 0.00 0.00 0.00 56 1014.1
20260902020307 62 226 1.0 6.0 0.00 0.00 0.00 55 1014.3
20260902015807 62 229 3.0 6.0 0.00 0.00 0.00 54 1014.4
20260902015306 62 292 1.0 5.0 0.00 0.00 0.00 55 1014.5
20260902014807 61 312 1.0 6.0 0.00 0.00 0.00 55 1014.7
20260902014307 61 266 3.0 8.0 0.00 0.00 0.00 56 1014.6
20260902013807 60 292 1.0 5.0 0.00 0.00 0.00 56 1014.6
20260902013308 60 269 2.0 5.0 0.00 0.00 0.00 58 1014.8
20260902012806 59 224 1.0 7.0 0.00 0.00 0.00 59 1014.8
20260902012309 59 292 2.0 7.0 0.00 0.00 0.00 59 1014.9
20260902011806 60 181 2.0 6.0 0.00 0.00 0.00 57 1015.0
20260902011307 59 289 2.0 7.0 0.00 0.00 0.00 58 1014.9
20260902010307 60 248 3.0 6.0 0.00 0.00 0.00 57 1015.1
20260902005307 61 271 3.0 7.0 0.00 0.00 0.00 56 1015.1
20260902004807 61 248 3.0 6.0 0.00 0.00 0.00 56 1015.0
20260902004306 59 251 3.0 6.0 0.00 0.00 0.00 58 1014.9
20260902003807 59 226 3.0 8.0 0.00 0.00 0.00 59 1015.1
20260902003307 60 290 4.0 9.0 0.00 0.00 0.00 59 1015.2
20260902002807 59 203 4.0 13.0 0.00 0.00 0.00 60 1015.1
20260902002307 59 272 4.0 9.0 0.00 0.00 0.00 59 1015.2
20260902001806 59 137 3.0 7.0 0.00 0.00 0.00 59 1015.3
20260902001306 60 288 5.0 10.0 0.00 0.00 0.00 59 1015.4
20260902000807 59 314 3.0 10.0 0.00 0.00 0.00 60 1015.6
20260902000306 59 291 5.0 10.0 0.00 0.00 0.00 60 1015.6
20260901235806 60 225 3.0 10.0 0.00 0.00 0.00 59 1015.6
20260901234806 58 249 4.0 12.0 0.00 0.00 0.00 62 1015.6
20260901234306 58 205 2.0 10.0 0.00 0.00 0.00 64 1015.5
20260901233306 58 269 4.0 7.0 0.00 0.00 0.00 63 1015.5
20260901232806 58 248 2.0 8.0 0.00 0.00 0.00 63 1015.5
20260901232308 57 249 4.0 8.0 0.00 0.00 0.00 64 1015.6
20260901231307 57 269 5.0 10.0 0.00 0.00 0.00 64 1015.7
20260901230807 57 292 5.0 10.0 0.00 0.00 0.00 65 1015.6
20260901225807 57 246 4.0 9.0 0.00 0.00 0.00 65 1015.7
20260901224806 56 205 3.0 9.0 0.00 0.00 0.00 68 1015.9
20260901224306 56 228 3.0 8.0 0.00 0.00 0.00 71 1015.6
20260901223806 56 337 3.0 9.0 0.00 0.00 0.00 70 1015.7
20260901223307 56 249 2.0 7.0 0.00 0.00 0.00 73 1015.5
20260901222807 55 290 3.0 7.0 0.00 0.00 0.00 72 1015.7
20260901221806 56 270 2.0 8.0 0.00 0.00 0.00 73 1015.7
20260901221306 55 267 2.0 6.0 0.00 0.00 0.00 75 1015.6
20260901220807 55 269 1.0 3.0 0.00 0.00 0.00 76 1015.6
20260901220308 54 292 2.0 7.0 0.00 0.00 0.00 76 1015.7
20260901215807 54 224 2.0 5.0 0.00 0.00 0.00 77 1015.5
20260901215309 54 246 1.0 3.0 0.00 0.00 0.00 78 1015.5
20260901214806 54 162 2.0 5.0 0.00 0.00 0.00 78 1015.3
20260901214306 54 247 1.0 2.0 0.00 0.00 0.00 78 1015.4
20260901213807 54 225 1.0 3.0 0.00 0.00 0.00 78 1015.3
20260901212806 53 161 1.0 3.0 0.00 0.00 0.00 79 1015.1
20260901212308 53 270 2.0 5.0 0.00 0.00 0.00 79 1015.1
20260901211807 53 225 2.0 5.0 0.00 0.00 0.00 80 1015.0
20260901211307 53 266 1.0 3.0 0.00 0.00 0.00 80 1014.9
20260901210807 53 203 1.0 3.0 0.00 0.00 0.00 80 1014.8
20260901210307 53 251 1.0 5.0 0.00 0.00 0.00 80 1014.9
20260901205809 53 249 3.0 6.0 0.00 0.00 0.00 80 1014.8
20260901205307 53 223 3.0 6.0 0.00 0.00 0.00 80 1014.8
20260901204806 53 248 2.0 5.0 0.00 0.00 0.00 80 1014.6